Weather History for Oxford, CT

Change the Weather History Date:

Sunday, May 27, 2012

  Actual Average Record
Temperature  
Mean Temperature 68 °F -  
Max Temperature 78 °F 65 °F 84 °F (2014)
Min Temperature 59 °F 47 °F 39 °F (1997)
Cooling Degree Days 4    
Growing Degree Days 18 (Base 50)    
Moisture  
Dew Point 57 °F    
Average Humidity 70    
Maximum Humidity 94    
Minimum Humidity 44    
Precipitation  
Precipitation 0.06 in - - ()
Sea Level Pressure  
Sea Level Pressure 30.14 in    
Wind  
Wind Speed 4 mph (SE)    
Max Wind Speed 10 mph    
Max Gust Speed -    
Visibility 8 miles    
Events Thunderstorm    
Averages and records for this station are not official NWS values.
T = Trace of Precipitation, MM = Missing Value Source: NWS Daily Summary

Daily Weather History Graph

Daily Weather History Graph

Search for Another Location

Airport:

Trip Planner

Search our weather history database for the weather conditions in past years. The results will help you decide how hot, cold, wet, or windy it might be!

Date:

Astronomy

May. 27, 2012 Rise Set
Actual Time 5:23 AM EDT 8:16 PM EDT
Civil Twilight 4:50 AM EDT 8:49 PM EDT
Nautical Twilight 4:09 AM EDT 9:30 PM EDT
Astronomical Twilight 3:21 AM EDT 10:19 PM EDT
Moon 11:28 AM EDT (5/27) 12:19 AM EDT (5/27)
Length of Visible Light 15h 58m
Length of Day
14h 52m
Waxing Crescent, 38% of the Moon is Illuminated
May 27
Waxing Crescent
May 28
First Quarter
Jun 4
Full
Jun 11
Last Quarter
Jun 19
New

Hourly Weather History & Observations

Time (EDT) Temp. Dew Point Humidity Pressure Visibility Wind Dir Wind Speed Gust Speed Precip Events Conditions
12:35 AM 64.4 °F 60.8 °F 88% 30.15 in 4.0 mi North 3.5 mph - N/A   Clear
12:55 AM 62.6 °F 60.8 °F 94% 30.15 in 7.0 mi North 4.6 mph - N/A   Clear
1:15 AM 64.4 °F 62.6 °F 94% 30.15 in 7.0 mi NW 3.5 mph - N/A   Clear
1:35 AM 64.4 °F 60.8 °F 88% 30.15 in 6.0 mi Calm Calm - N/A   Clear
1:55 AM 62.6 °F 60.8 °F 94% 30.15 in 5.0 mi Calm Calm - N/A   Clear
2:15 AM 64.4 °F 60.8 °F 88% 30.15 in 7.0 mi NW 3.5 mph - N/A   Clear
2:55 AM 62.6 °F 59.0 °F 88% 30.15 in 5.0 mi Calm Calm - N/A   Clear
3:15 AM 62.6 °F 57.2 °F 82% 30.14 in 10.0 mi North 3.5 mph - N/A   Clear
3:35 AM 60.8 °F 57.2 °F 88% 30.14 in 10.0 mi North 4.6 mph - N/A   Scattered Clouds
4:15 AM 60.8 °F 53.6 °F 77% 30.14 in 10.0 mi NNE 3.5 mph - N/A   Clear
4:35 AM 60.8 °F 55.4 °F 82% 30.15 in 10.0 mi North 4.6 mph - N/A   Clear
4:55 AM 60.8 °F 55.4 °F 82% 30.15 in 10.0 mi North 6.9 mph - N/A   Clear
5:15 AM 59.0 °F 53.6 °F 82% 30.15 in 10.0 mi North 6.9 mph - N/A   Clear
5:35 AM 60.8 °F 51.8 °F 72% 30.16 in 10.0 mi NNW 6.9 mph - N/A   Clear
5:45 AM 60.8 °F 51.8 °F 72% 30.17 in 10.0 mi North 9.2 mph - N/A   Clear
5:55 AM 60.8 °F 51.8 °F 72% 30.17 in 10.0 mi North 10.4 mph - N/A   Clear
6:45 AM 64.4 °F 51.8 °F 64% 30.19 in 10.0 mi NE 5.8 mph - N/A   Overcast
7:45 AM 62.6 °F 53.6 °F 72% 30.20 in 10.0 mi Calm Calm - N/A   Overcast
8:45 AM 64.4 °F 53.6 °F 68% 30.20 in 10.0 mi ENE 5.8 mph - N/A   Overcast
9:45 AM 68.0 °F 55.4 °F 64% 30.19 in 10.0 mi East 5.8 mph - N/A   Mostly Cloudy
10:45 AM 73.4 °F 53.6 °F 50% 30.18 in 7.0 mi East 5.8 mph - N/A   Clear
11:15 AM 75.2 °F 55.4 °F 50% 30.18 in 7.0 mi SE 5.8 mph - N/A   Clear
11:45 AM 77.0 °F 55.4 °F 47% 30.17 in 7.0 mi SE 3.5 mph - N/A   Clear
12:45 PM 77.0 °F 55.4 °F 47% 30.17 in 7.0 mi Calm Calm - N/A   Clear
1:45 PM 78.8 °F 55.4 °F 44% 30.16 in 7.0 mi SSW 6.9 mph - N/A   Scattered Clouds
2:45 PM 78.8 °F 55.4 °F 44% 30.14 in 7.0 mi South 6.9 mph - N/A   Partly Cloudy
3:45 PM 78.8 °F 55.4 °F 44% 30.13 in 7.0 mi South 8.1 mph - N/A   Clear
4:45 PM 78.8 °F 55.4 °F 44% 30.11 in 7.0 mi South 9.2 mph - N/A   Clear
5:45 PM 78.8 °F 57.2 °F 47% 30.10 in 8.0 mi South 6.9 mph - N/A   Clear
6:45 PM 73.4 °F 59.0 °F 61% 30.09 in 10.0 mi South 8.1 mph - N/A   Clear
7:45 PM 73.4 °F 57.2 °F 57% 30.09 in 8.0 mi South 6.9 mph - N/A   Clear
8:45 PM 69.8 °F 57.2 °F 64% 30.09 in 10.0 mi South 6.9 mph - N/A   Clear
9:15 PM 68.0 °F 57.2 °F 68% 30.10 in 10.0 mi South 8.1 mph - N/A   Clear
9:35 PM 68.0 °F 57.2 °F 68% 30.10 in 10.0 mi SSE 5.8 mph - N/A   Clear
10:15 PM 66.2 °F 59.0 °F 78% 30.09 in 10.0 mi SSE 5.8 mph - N/A   Partly Cloudy
10:35 PM 66.2 °F 57.2 °F 73% 30.09 in 10.0 mi SSE 4.6 mph - N/A   Clear
10:55 PM 66.2 °F 57.2 °F 73% 30.08 in 10.0 mi South 3.5 mph - N/A   Partly Cloudy
11:15 PM 66.2 °F 57.2 °F 73% 30.07 in 10.0 mi SSE 3.5 mph - N/A   Clear
11:35 PM 64.4 °F 59.0 °F 83% 30.06 in 10.0 mi South 5.8 mph - N/A   Scattered Clouds
11:55 PM 64.4 °F 60.8 °F 88% 30.08 in 7.0 mi West 4.6 mph - 0.06 in Thunderstorm Thunderstorm